TimeIST,TemperatureF,Dew PointF,Humidity,Sea Level PressureIn,VisibilityMPH,Wind Direction,Wind SpeedMPH,Gust SpeedMPH,PrecipitationIn,Events,Conditions,WindDirDegrees,DateUTC
1:00 AM,71.6,55.4,57,29.92,1.6,Calm,Calm,-,N/A,,Haze,0,2012-10-13 19:30:00
2:00 AM,69.8,55.4,60,29.92,1.6,Calm,Calm,-,N/A,,Haze,0,2012-10-13 20:30:00
3:00 AM,71.6,57.2,60,-9999,1.6,West,3.5,-,N/A,,Haze,280,2012-10-13 21:30:00
5:00 AM,71.6,57.2,60,29.92,1.6,Calm,Calm,-,N/A,,Haze,0,2012-10-13 23:30:00
5:30 AM,71.6,57.2,60,29.92,1.6,Calm,Calm,-,N/A,,Haze,0,2012-10-14 00:00:00
6:00 AM,71.6,59.0,64,29.92,1.6,Calm,Calm,-,N/A,,Haze,0,2012-10-14 00:30:00
6:30 AM,71.6,59.0,64,29.95,1.6,Calm,Calm,-,N/A,,Haze,0,2012-10-14 01:00:00
7:00 AM,71.6,59.0,64,29.95,1.6,Calm,Calm,-,N/A,,Haze,0,2012-10-14 01:30:00
8:00 AM,78.8,60.8,54,29.98,1.6,Variable,3.5,-,N/A,,Haze,0,2012-10-14 02:30:00
8:30 AM,80,57,35,29.91,1,,2.3,,,,Haze,,2012-10-14 03:00:00
8:30 AM,82.4,57.2,42,29.98,1.6,Variable,2.3,-,N/A,,Haze,0,2012-10-14 03:00:00
10:00 AM,87.8,57.2,35,30.01,1.9,NW,3.5,-,N/A,,Haze,310,2012-10-14 04:30:00
10:30 AM,89.6,57.2,33,30.01,1.9,Variable,4.6,-,N/A,,Haze,0,2012-10-14 05:00:00
11:00 AM,91.4,55.4,29,29.98,2.5,NW,5.8,-,N/A,,Haze,310,2012-10-14 05:30:00
11:30 AM,91.4,55.4,29,29.98,2.5,Variable,5.8,-,N/A,,Haze,0,2012-10-14 06:00:00
12:00 PM,91.4,55.4,29,29.98,2.5,Variable,6.9,-,N/A,,Haze,0,2012-10-14 06:30:00
1:00 PM,93.2,55.4,28,29.95,2.5,NW,5.8,-,N/A,,Haze,320,2012-10-14 07:30:00
2:00 PM,93.2,51.8,24,29.92,2.5,Variable,8.1,-,N/A,,Haze,0,2012-10-14 08:30:00
2:30 PM,95,50,13,29.80,2,SSW,3.5,,,,Haze,200,2012-10-14 09:00:00
3:00 PM,93.2,50.0,23,29.89,2.5,Variable,3.5,-,N/A,,Haze,0,2012-10-14 09:30:00
4:00 PM,93.2,50.0,23,29.89,2.5,Variable,4.6,-,N/A,,Haze,0,2012-10-14 10:30:00
5:30 PM,90,53,18,29.79,2,NW,2.3,,,,Haze,320,2012-10-14 12:00:00
6:00 PM,87.8,53.6,31,29.89,1.9,Calm,Calm,-,N/A,,Haze,0,2012-10-14 12:30:00
7:00 PM,86.0,55.4,35,29.92,1.9,Calm,Calm,-,N/A,,Haze,0,2012-10-14 13:30:00
8:00 PM,84.2,55.4,37,29.95,1.9,Calm,Calm,-,N/A,,Haze,0,2012-10-14 14:30:00
8:30 PM,83,55,28,29.85,1,Calm,Calm,,,,Haze,,2012-10-14 15:00:00
9:00 PM,82.4,55.4,39,29.95,1.9,Calm,Calm,-,N/A,,Haze,0,2012-10-14 15:30:00
10:00 PM,78.8,55.4,44,29.95,1.9,Calm,Calm,-,N/A,,Haze,0,2012-10-14 16:30:00
11:00 PM,77.0,55.4,47,29.95,1.6,Calm,Calm,-,N/A,,Haze,0,2012-10-14 17:30:00
11:30 PM,78,56,35,29.88,1,Calm,Calm,,,,Haze,,2012-10-14 18:00:00